Regional Weather Roundup
Issued by NWS

Home | Current Version | Previous Version | Graphics & Text | Print | Product List | Glossary On
Versions: 1 2 3 4 5 6 7 8 9 10 11 12 13 14 15 16 17 18 19 20 21 22 23 24 25 26 27 28 29 30 31 32 33 34 35 36 37 38 39 40 41 42 43 44 45 46 47 48 49 50
000
ASUS43 KDTX 221710
RWRMI
MICHIGAN HOURLY REGIONAL WEATHER ROUNDUP
NATIONAL WEATHER SERVICE DETROIT/PONTIAC MI
100 PM EDT TUE AUG 22 2017

NOTE: "FAIR" INDICATES FEW OR NO CLOUDS BELOW 12,000 FEET WITH NO
SIGNIFICANT WEATHER AND/OR OBSTRUCTION TO VISIBILITY.

MIZ047>049-052>055-059>063-066>070-074>076-081>083-221800-
SOUTHEAST LOWER MICHIGAN

CITY           SKY/WX    TMP DP  RH WIND       PRES   REMARKS
ADRIAN         CLOUDY    75  66  73 W14G24    29.84S
ALMA           CLOUDY    73  63  68 W21G28    29.77F
ANN ARBOR      CLOUDY    78  67  68 SW20      29.80F
BAD AXE        CLOUDY    75  68  79 W12G23    29.72S
CARO           CLOUDY    76  66  71 SW16G22   29.73S
DETROIT CITY   CLOUDY    77  66  68 W16G24    29.78F
DETROIT        CLOUDY    77  67  71 SW15      29.80F
FLINT          CLOUDY    76  67  73 W17       29.76F
GROSSE ILE     PTSUNNY   75  67  77 SW10      29.79F
HILLSDALE      CLOUDY    73  64  73 W14G21    29.84S
HOWELL         CLOUDY    75  66  75 W15G22    29.79S

CITY           SKY/WX    TMP DP  RH WIND       PRES   REMARKS
JACKSON        CLOUDY    75  66  73 SW17G24   29.81F
LAMBERTVILLE   CLOUDY    73  67  79 SW7G18    29.83S
LANSING        CLOUDY    75  62  64 W17G28    29.80S
LAPEER         CLOUDY    75  66  72 W8G20     29.76F
MASON          CLOUDY    77  66  68 W8G23     29.79F
MONROE         CLOUDY    76  68  75 W10G20    29.81S
MT. CLEMENS    PTSUNNY   77  68  75 SW10G20   29.75F
PONTIAC        CLOUDY    76  68  76 W14       29.77F
PORT HOPE        N/A     75  67  76 W14G21    29.67F
PORT HURON     CLOUDY    75  68  78 SW8       29.76F
TRI CITIES     CLOUDY    75  66  73 W16       29.74F
MIDLAND        CLOUDY    74  64  70 W8        29.73F
TROY           CLOUDY    78  67  69 SW9G17    29.80F
SAGINAW HB     CLOUDY    75  64  69 W16       29.73S
$$
MIZ043>046-050>051-056>058-064>065-071>073-077>080-221800-
SOUTHWEST LOWER MICHIGAN

CITY           SKY/WX    TMP DP  RH WIND       PRES   REMARKS
BATTLE CREEK   CLOUDY    75  66  73 W16G28    29.84R
BENTON HARBOR  CLOUDY    71  62  73 NW12G26   29.87R
BIG RAPIDS     PTSUNNY   72  62  68 W14G21    29.77F
COLDWATER      CLOUDY    76  67  74 W17G28    29.84F
FREMONT        CLOUDY    72  66  81 W13G18    29.80S
HOLLAND        CLOUDY    72  63  73 NW12G23   29.84S
GRAND RAPIDS   CLOUDY    72  64  76 W20G25    29.81R
IONIA          CLOUDY    73  62  66 W16G26    29.79S
KALAMAZOO      CLOUDY    76  63  64 W13G24    29.84R
LUDINGTON      PTSUNNY   69  57  64 NW18G26   29.81S
MARSHALL       CLOUDY    73  67  80 W14       29.82S
MOUNT PLEASANT CLOUDY    74  63  69 W14G20    29.75F
MUSKEGON       CLOUDY    74  64  71 W15G28    29.82R
SOUTH HAVEN    CLOUDY    72  64  76 NW10G20   29.86R
$$
MIZ016>042-221800-
NORTHERN LOWER MICHIGAN

CITY           SKY/WX    TMP DP  RH WIND       PRES   REMARKS
ALPENA         CLOUDY    68  64  87 W12G21    29.67R
BEAVER ISLAND  CLOUDY    66  53  63 NW14G26   29.75R
BELLAIRE       PTSUNNY   66  56  71 NW10G17   29.76S
CADILLAC       CLOUDY    67  58  72 NW14G21   29.79S
CHARLEVOIX     PTSUNNY   66  56  71 W14G23    29.78R
FRANKFORT      MOSUNNY   70  57  63 NW10G22   29.81R
GAYLORD        CLOUDY    62  55  77 W14G20    29.75S
GRAYLING       CLOUDY    63  57  79 W15       29.77R
HARBOR SPRINGS CLOUDY    66  56  70 W10G20    29.73R
HOUGHTON LAKE  PTSUNNY   68  58  70 W18G24    29.76R
MANISTEE       PTSUNNY   70  57  63 NW16G24   29.81R
OSCODA         PTSUNNY   77  63  61 MISG      29.64F
PELLSTON       PTSUNNY   67  57  70 NW21G32   29.72R
ROGERS CITY    CLOUDY    67  61  83 NW17G23   29.68R
TRAVERSE CITY  PTSUNNY   68  56  65 NW16G23   29.78R
$$
MIZ007>008-015-221800-
EASTERN UPPER MICHIGAN

CITY           SKY/WX    TMP DP  RH WIND       PRES   REMARKS
MACKINAC ISLAN CLOUDY    66  57  71 NW14G24   29.69R
NEWBERRY       CLOUDY    63  55  75 NW17G25   29.73R
S. S. MARIE    PTSUNNY   65  55  70 NW16G33   29.66R
MUNISING         N/A     64  57  78 NW18G26   29.77R
$$
MIZ004>006-011>014-085-221800-
CENTRAL UPPER MICHIGAN

CITY           SKY/WX    TMP DP  RH WIND       PRES   REMARKS
MANISTIQUE     PTSUNNY   66  49  55 NW14G23   29.75S
ESCANABA       PTSUNNY   69  53  56 NW15G30   29.78S
MENOMINEE      MOSUNNY   70  53  54 NW8G25    29.83R
SAWYER-GWINN   PTSUNNY   64  52  63 W15G23    29.79S
$$
MIZ001>003-009>011-084-221800-
WESTERN UPPER MICHIGAN

CITY           SKY/WX    TMP DP  RH WIND       PRES   REMARKS
IRON MOUNTAIN  PTSUNNY   67  50  54 NW15G26   29.82R
HOUGHTON       LGT RAIN  63  52  67 NW25G36   29.79S
COPPER HARBOR    N/A     63  53  70 N23G31    29.76S
IRONWOOD       SUNNY     64  51  62 W16       29.90S
$$

ABBREVIATIONS USED IN REMARKS
   TC - TEMPERATURE IN CELSIUS
  WCI - WIND CHILL INDEX
   HX - HEAT INDEX
  VSB - VISIBILITY





USA.gov is the U.S. government's official web portal to all federal, state and local government web resources and services.